View from above orbital plane
|
View from above satellite
|
Ground track
|
The orbit data is extracted from the following two-line orbital elements,
1 7530U 74089B 19344.14109804 -.00000047 00000-0 -93256-5 0 9994
2 7530 101.7716 310.1714 0012388 11.7877 359.0760 12.53641116 62389
Epoch (UTC): | 10 December 2019 03:23:10 |
Eccentricity: | 0.0012388 |
inclination: | 101.7716° |
perigee height: | 1439 km |
apogee height: | 1459 km |
right ascension of ascending node: | 310.1714° |
argument of perigee: | 11.7877° |
revolutions per day: | 12.53641116 |
mean anomaly at epoch: | 359.0760° |
orbit number at epoch: | 6238 |
The dashed part of the orbit path shows where the satellite is in the earth's shadow,
|
|